Location: Betra
(48.4113°N, 8.6634°E)
Time: 16:02:23
(UTC+00:00)

H-2A R/B - Pass Details

Date: 23 May 2024
Orbit: 567 x 637 km, 98.4° (Epoch: 16 June)

Event Time Altitude Azimuth Distance (km) Brightness Sun altitude
Rises 00:31:19 0° 4° (N) 2,953 7.0 -19.2°
Reaches altitude 10° 00:33:50 10° 351° (N) 2,039 5.6 -19.1°
Maximum altitude 00:37:24 24° 297° (WNW) 1,315 3.8 -18.9°
Enters shadow 00:39:22 18° 260° (W) 1,564 3.8 -18.8°
